Change the Weather History Date:

Monday, December 3, 2012

  Actual Average Record
Temperature  
Mean Temperature 70 °F -  
Max Temperature 82 °F 54 °F 82 °F (2012)
Min Temperature 56 °F 32 °F 22 °F (2007)
Cooling Degree Days 4    
Growing Degree Days 20 (Base 50)    
Moisture  
Dew Point 45 °F    
Average Humidity 55    
Maximum Humidity 100    
Minimum Humidity 15    
Precipitation  
Precipitation 0.00 in - - ()
Sea Level Pressure  
Sea Level Pressure 29.85 in    
Wind  
Wind Speed 14 mph (SW)    
Max Wind Speed 21 mph    
Max Gust Speed 26 mph    
Visibility 10 miles    
Events      
Averages and records for this station are not official NWS values.
T = Trace of Precipitation, MM = Missing Value Source: NWS Daily Summary

Daily Weather History Graph

Daily Weather History Graph

Search for Another Location

Airport or City:

Trip Planner

Search our weather history database for the weather conditions in past years. The results will help you decide how hot, cold, wet, or windy it might be!

Date:

Astronomy

Dec. 03, 2012 Rise Set
Actual Time 7:28 AM CST 5:26 PM CST
Civil Twilight 7:00 AM CST 5:53 PM CST
Nautical Twilight 6:29 AM CST 6:24 PM CST
Astronomical Twilight 5:58 AM CST 6:55 PM CST
Moon 10:07 PM CST (12/3) 10:57 AM CST (12/3)
Length of Visible Light 10h 53m
Length of Day
9h 57m
Waning Gibbous, 78% of the Moon is Illuminated
Dec 3
Waning Gibbous
Dec 6
Last Quarter
Dec 13
New
Dec 19
First Quarter
Dec 28
Full

Hourly Weather History & Observations

Time (CST) Temp. Dew Point Humidity Pressure Visibility Wind Dir Wind Speed Gust Speed Precip Events Conditions
12:55 AM 63.7 °F 55.8 °F 75% 29.85 in 10.0 mi South 13.8 mph - N/A   Clear
1:55 AM 63.0 °F 56.5 °F 79% 29.84 in 10.0 mi South 19.6 mph - N/A   Clear
2:55 AM 61.9 °F 57.2 °F 85% 29.83 in 10.0 mi South 16.1 mph - N/A   Clear
3:55 AM 60.3 °F 57.4 °F 90% 29.82 in 10.0 mi South 13.8 mph - N/A   Clear
4:55 AM 59.0 °F 57.9 °F 96% 29.80 in 10.0 mi South 12.7 mph - N/A   Clear
5:55 AM 57.0 °F 56.7 °F 99% 29.82 in 10.0 mi South 8.1 mph - N/A   Clear
6:55 AM 57.0 °F 57.0 °F 100% 29.82 in 4.0 mi SSE 4.6 mph - N/A   Clear
7:55 AM 57.9 °F 57.9 °F 100% 29.85 in 6.0 mi South 3.5 mph - N/A   Clear
8:55 AM 61.3 °F 61.0 °F 99% 29.85 in 8.0 mi South 6.9 mph - N/A   Clear
9:55 AM 66.2 °F 60.4 °F 82% 29.85 in 10.0 mi SSW 16.1 mph 23.0 mph N/A   Clear
10:55 AM 72.1 °F 57.2 °F 59% 29.86 in 10.0 mi SSW 20.7 mph - N/A   Clear
11:55 AM 76.3 °F 46.9 °F 35% 29.81 in 10.0 mi SW 20.7 mph 26.5 mph N/A   Clear
12:55 PM 78.8 °F 40.5 °F 25% 29.79 in 10.0 mi WSW 12.7 mph 23.0 mph N/A   Clear
1:55 PM 80.8 °F 33.4 °F 18% 29.78 in 10.0 mi SW 16.1 mph 20.7 mph N/A   Clear
2:55 PM 82.0 °F 32.2 °F 16% 29.76 in 10.0 mi SW 10.4 mph - N/A   Clear
3:55 PM 81.1 °F 28.9 °F 15% 29.76 in 10.0 mi WSW 12.7 mph - N/A   Clear
4:55 PM 78.4 °F 29.3 °F 17% 29.79 in 10.0 mi NNW 17.3 mph - N/A   Clear
5:04 PM 75.2 °F 30.2 °F 19% 29.79 in 10.0 mi NNW 16.1 mph - N/A   Clear
5:55 PM 68.7 °F 28.8 °F 23% 29.83 in 10.0 mi North 11.5 mph - N/A   Clear
6:55 PM 66.9 °F 32.4 °F 28% 29.88 in 10.0 mi NNE 13.8 mph - N/A   Clear
7:55 PM 63.7 °F 33.3 °F 32% 29.93 in 10.0 mi North 20.7 mph - N/A   Clear
8:55 PM 61.2 °F 37.4 °F 41% 29.96 in 10.0 mi NNE 20.7 mph 26.5 mph N/A   Clear
9:55 PM 59.4 °F 38.8 °F 47% 30.00 in 10.0 mi North 16.1 mph - N/A   Clear
10:55 PM 57.4 °F 39.0 °F 50% 30.02 in 10.0 mi North 13.8 mph 19.6 mph N/A   Clear
11:55 PM 56.7 °F 39.4 °F 52% 30.03 in 10.0 mi North 15.0 mph - N/A   Clear